Current weather by "City, St" or "zip code"  
 
Advertise Here

Current Conditions: Columbus, Columbus Metropolitan Airport, GA

Overcast


67.0 F

Last Updated on May 12 2021, 12:51 pm EDT
Humidity: 87%
Wind Speed: N 8.1 mph
Barometer 30.09 in
Dewpoint: 63.0 F
Visibility: 10.00 mi
Precip: --
Heat Index: NA
Wind Chill: NA
Current conditions at:

Columbus, Columbus Metropolitan Airport, GA (KCSG)

Lat: 32.51611 Lon: 84.94222

Local Radar Image active severe weather and emergency alerts image image weather storm and storm spotter reports image weather observation monitoring service image
Local
Radar
Active
Alerts
Storm Reports Obs
Monitoring

Sign-up For Email & Text Message Weather Alert Notification Services


Advertise Here

Observation History for Columbus, Columbus Metropolitan Airport, GA


Time Wind
(mph)
Vis
(mi)
Weather Precip (in) Temperature (F) Relative
Humidity
Wind
Chill
(F)
Heat
Index
(F)
Pressure
Air Dwpt altimeter
(in)
sea level
(mb)
Rmks
12:51 pm EDT N 8.1 10.00 Overcast -- 67.0 63.0 87% NA NA 30.09 1018.6
11:51 am EDT E 3.5 10.00 Light Rain 00.01 66.0 63.0 90% NA NA 30.09 1018.4
10:51 am EDT NE 9.2 10.00 Light Rain 00.04 65.0 62.1 90% NA NA 30.09 1018.5
9:51 am EDT N 6.9 8.00 Light Rain 00.03 66.0 64.0 93% NA NA 30.09 1018.5
8:51 am EDT NW 6.9 10.00 Light Rain Trace 68.0 64.9 90% NA NA 30.08 1018.1
7:51 am EDT N 0.0 9.00 Light Rain 00.02 67.0 66.0 97% NA NA 30.06 1017.6
6:51 am EDT N 0.0 5.00 Light Rain Fog/Mist 00.07 67.0 64.9 93% NA NA 30.04 1016.9
5:51 am EDT N 0.0 5.00 Rain Fog/Mist 00.08 66.0 64.9 96% NA NA 30.03 1016.3
4:51 am EDT S 3.5 10.00 Light Rain Trace 66.0 64.9 96% NA NA 30.04 1016.6
3:51 am EDT SE 3.5 10.00 Overcast -- 66.0 64.0 93% NA NA 30.03 1016.5
2:51 am EDT SE 3.5 10.00 Overcast -- 67.0 64.9 93% NA NA 30.04 1016.7
1:51 am EDT SE 5.8 10.00 Overcast -- 67.0 64.9 93% NA NA 30.04 1016.8
12:51 am EDT N 0.0 10.00 Partly Cloudy -- 68.0 66.0 93% NA NA 30.06 1017.3
11:51 pm EDT N 0.0 10.00 Mostly Cloudy -- 68.0 66.0 93% NA NA 30.07 1017.7
10:51 pm EDT N 0.0 10.00 Mostly Cloudy Trace 68.0 66.0 93% NA NA 30.07 1017.9
9:51 pm EDT NE 5.8 7.00 Light Rain 00.11 68.0 66.0 93% NA NA 30.06 1017.4
8:51 pm EDT SW 8.1 9.00 Thunderstorm in Vicinity Light Rain 00.01 68.0 64.9 90% NA NA 30.05 1017.3
7:51 pm EDT SW 8.1 10.00 Overcast 00.01 71.0 66.0 84% NA NA 30.02 1016.2
6:51 pm EDT N 12.7 10.00 Thunderstorm Light Rain -- 72.0 64.0 76% NA NA 30.00 1015.5
5:51 pm EDT W 5.8 10.00 Mostly Cloudy -- 81.0 64.9 58% NA 83 29.99 1015.0
4:51 pm EDT NW 4.6 10.00 A Few Clouds -- 82.0 64.0 55% NA 83 30.00 1015.3
3:51 pm EDT NW 4.6 10.00 Overcast -- 83.0 64.0 53% NA 84 30.03 1016.4
2:51 pm EDT SW 4.6 10.00 Fair -- 82.0 64.0 55% NA 83 30.05 1017.1

Regional Weather Observation


Pine Mountain Harris County Airport, GA (KPIM)

Heavy Rain
61.0 F

Columbus, Columbus Metropolitan Airport, GA (KCSG)

Overcast
67.0 F

Fort Benning, GA (KLSF)

Overcast
69.0 F

LaGrange-Callaway Airport, GA (KLGC)

Light Rain
60.0 F

Alexander City, Thomas C Russell Field Airport, AL (KALX)

Rain
61.0 F

Thomaston, Thomaston-Upson County Airport, GA (KOPN)

Overcast
64.0 F
Advertise Here

Advertise Here